Weather History for Wolf Point, MT

Change the Weather History Date:

Saturday, February 16, 2013

  Actual Average Record
Temperature  
Mean Temperature 33 °F -  
Max Temperature 42 °F 30 °F 55 °F (2002)
Min Temperature 24 °F 6 °F -17 °F (2006)
Degree Days  
Heating Degree Days 32    
Cooling Degree Days 0    
Moisture  
Dew Point 26 °F    
Average Humidity 80    
Maximum Humidity 92    
Minimum Humidity 65    
Precipitation  
Precipitation 0.00 in 0.00 in 0.03 in (2007)
Month to date precipitation 0.09 0.08  
Year to date precipitation 0.20 0.39  
Sea Level Pressure  
Sea Level Pressure 29.92 in    
Wind  
Wind Speed 9 mph (WSW)    
Max Wind Speed 13 mph    
Max Gust Speed -    
Visibility 10 miles    
Events      
T = Trace of Precipitation, MM = Missing Value Source: NWS Daily Summary

Daily Weather History Graph

Daily Weather History Graph

Search for Another Location

Airport:

Trip Planner

Search our weather history database for the weather conditions in past years. The results will help you decide how hot, cold, wet, or windy it might be!

Date:

Astronomy

Feb. 16, 2013 Rise Set
Actual Time 7:06 AM MST 5:26 PM MST
Civil Twilight 6:34 AM MST 5:58 PM MST
Nautical Twilight 5:58 AM MST 6:35 PM MST
Astronomical Twilight 5:22 AM MST 7:11 PM MST
Moon 9:47 AM MST 12:01 AM MST
Length of Visible Light 11h 24m
Length of Day
10h 20m
Waxing Crescent, 40% of the Moon is Illuminated
Feb 16
Waxing Crescent
Feb 17
First Quarter
Feb 25
Full
Mar 4
Last Quarter
Mar 11
New

Hourly Weather History & Observations

Time (MST) Temp. Windchill Dew Point Humidity Pressure Visibility Wind Dir Wind Speed Gust Speed Precip Events Conditions
12:53 AM 28.9 °F 18.6 °F 24.1 °F 82% 30.05 in 10.0 mi WSW 12.7 mph - N/A   Partly Cloudy
1:53 AM 30.0 °F 20.5 °F 25.0 °F 82% 30.03 in 10.0 mi West 11.5 mph - N/A   Overcast
2:53 AM 30.0 °F 20.0 °F 25.0 °F 82% 30.01 in 10.0 mi WSW 12.7 mph - N/A   Overcast
3:53 AM 28.0 °F 18.6 °F 24.1 °F 85% 30.01 in 10.0 mi West 10.4 mph - N/A   Clear
4:53 AM 30.0 °F 21.7 °F 25.0 °F 82% 30.01 in 10.0 mi West 9.2 mph - N/A   Clear
5:53 AM 28.0 °F 17.5 °F 24.1 °F 85% 30.01 in 10.0 mi WSW 12.7 mph - N/A   Clear
6:53 AM 27.0 °F 19.5 °F 23.0 °F 85% 30.02 in 10.0 mi WSW 6.9 mph - N/A   Partly Cloudy
7:53 AM 27.0 °F 17.3 °F 23.0 °F 85% 30.01 in 10.0 mi WSW 10.4 mph - N/A   Clear
8:53 AM 30.0 °F 21.7 °F 24.1 °F 79% 30.01 in 10.0 mi WSW 9.2 mph - N/A   Clear
9:53 AM 33.1 °F 23.9 °F 27.0 °F 78% 29.99 in 10.0 mi West 12.7 mph - N/A   Clear
10:53 AM 35.1 °F 26.4 °F 28.0 °F 76% 29.98 in 10.0 mi West 12.7 mph - N/A   Clear
11:53 AM 37.9 °F 30.9 °F 28.9 °F 70% 29.97 in 10.0 mi West 10.4 mph - N/A   Clear
12:53 PM 39.0 °F 32.8 °F 28.9 °F 67% 29.95 in 10.0 mi WSW 9.2 mph - N/A   Clear
1:53 PM 39.0 °F 33.4 °F 30.0 °F 70% 29.93 in 10.0 mi SW 8.1 mph - N/A   Clear
2:53 PM 41.0 °F 35.2 °F 30.0 °F 65% 29.90 in 10.0 mi West 9.2 mph - N/A   Clear
3:53 PM 42.1 °F 40.2 °F 30.9 °F 65% 29.88 in 10.0 mi WSW 3.5 mph - N/A   Clear
4:53 PM 39.9 °F 37.8 °F 30.0 °F 68% 29.86 in 10.0 mi SW 3.5 mph - N/A   Clear
5:53 PM 36.0 °F - 28.9 °F 76% 29.85 in 10.0 mi Calm Calm - N/A   Clear
6:53 PM 30.9 °F - 28.0 °F 89% 29.83 in 10.0 mi Calm Calm - N/A   Clear
7:53 PM 30.0 °F - 27.0 °F 88% 29.80 in 10.0 mi Calm Calm - N/A   Clear
8:53 PM 28.9 °F - 26.1 °F 89% 29.76 in 10.0 mi Calm Calm - N/A   Clear
9:53 PM 27.0 °F - 24.1 °F 89% 29.74 in 10.0 mi Calm Calm - N/A   Clear
10:53 PM 26.1 °F - 23.0 °F 88% 29.72 in 10.0 mi Calm Calm - N/A   Clear
11:53 PM 25.0 °F - 23.0 °F 92% 29.68 in 10.0 mi Calm Calm - N/A   Clear